Showing default

KUIPER-00603, 69287

Orbit data source: Space-Track

KUIPER-00603, 69287 is a payload satellite owned by Kuiper Systems (US) in LEO that was launched on Fri, 29 May 2026 UTC via an ATLAS V 551 launch vehicle from the Air Force Eastern Test Range (AFETR). Payload-class satellites include a variety of spacecraft equipped with specific instruments for various scientific and technological missions. These include communications satellites like Starlink; space stations such as the ISS; scientific satellites like the Hubble; Earth observation satellites from companies like Planet Labs, Umbra, and HawkEye 360; GPS; miniature CubeSats for education and research; and military/defense satellites.

Loading next visibility...
Identifier
69287, 2026-118W
Orbit
LEO
Country
Flag of USUS
Related business
Manufacturer
Kuiper Systems
Mission
Operational spacecraft
Bus & Motor
KUIPER, Unknown motor
Mass
~490 kg wet, ~490 kg dry
Launch date (UTC)
2026-05-29 (3 weeks ago)
Launch vehicle
ATLAS V 551
Launch site
Air Force Eastern Test Range (AFETR)
Object type
Payload
Rocket body
Debris
Shape & HBR
Unknown
Radar Cross Section
Large (>1 m²)

Expand to show TLE details & history
Last TLE update: 21 hours ago

TLE from 21 hours ago
0 KUIPER-00603
1 69287U 26118W   26170.98857071  .00017514  00000-0  47588-3 0  9994
2 69287  51.8677  39.7060 0005271 171.6633 188.4442 15.37640463  4414
Epoch: 2026-06-19T23:43Z
TLE epoch observation values (Epoch: 2026-06-19T23:43:32.509Z)
Latitude
-0.00003°
Longitude
135.61087°
Altitude
457.413 km
Speed
7.637 km/s
True Right ascension
02h 38m 49s
True Declination
0° 00' 00"
Sunlit
Object was in daylight at epoch
Visualization orbit readout
Latitude
Unknown
Longitude
Unknown
Altitude
Unknown
Speed
Unknown
Apparent Right ascension
Unknown
Apparent Declination
Unknown
Sunlit
N/A
Visualization observer readout
Local Sidereal Time
07:12:47
Azimuth
Unknown
Elevation
Unknown
Doppler factor
Unknown
Orbital elements
Apogee altitude
457.158 km
Perigee altitude
449.956 km
Semi-major axis
6,831.694 km
Eccentricity
0.00053
Inclination
51.8677°
RAAN
39.706°
Arg. of periapsis
171.6633°
True anomaly
188.43534°
Mean anomaly
188.4442°
Eccentric anomaly
188.43977°
Mean motion
3.84371 °/min
Orbital period
93.66 mins
BSTAR
0.00047588
Loading maneuver chart data...
Computing Atmospheric mass density...
Loading historical data...
Loading historical data...
Loading historical data...
Loading historical data...
Loading historical data...
Loading historical data...
Loading historical data...

Documentation

Showing up to 5 results
|